Tracking 19905 objects as of 18-Oct-2019
HD Live streaming from Space Station
objects crossing your sky now

NOAA 16 DEB

Track NOAA 16 DEB now!
10-day predictions


NORAD ID: 41276
Int'l Code: 2000-055GC
Perigee: 854.0 km
Apogee: 873.9 km
Inclination: 98.8 °
Period: 102.1 minutes
Semi major axis: 7234 km
RCS: Unknown
Launch date: September 21, 2000
Source: United States (US)
Launch site: AIR FORCE WESTERN TEST RANGE (AFWTR)

Note: This is SATELLITE DEBRIS
aabbcc
Your satellite tracking list
Your tracking list is empty




NASA's NSSDC Master Catalog

Two Line Element Set (TLE):
1 41276U 00055GC  19290.00129899  .00000510  00000-0  30936-3 0  9999
2 41276  98.8136 355.0140 0013783 262.6955  97.2650 14.10740958196590
Source of the keplerian elements: AFSPC